STARLINK-3793 (52380 NORAD) Tracking and Keplerian Element Data

This shows tracking and keplerian element data for the satellite.

Feedback or suggestion? Click here.




ElementValue
Catalog52380
NameSTARLINK-3793
Epoch Orbit130
Epoch Day167.08334491
Epoch Year2022
RAAN202.6506
Inclination53.2139
Eccentricity0.0002395
Argument of Perigee27.8707
Mean Anonmoly285.2685
Mean Motion15.73194464
Decay Rate0.00077285
L11 52380U 22045BB 22167.08334491 .00077285 00000+0 55011-3 0 9994
L22 52380 53.2139 202.6506 0002395 27.8707 285.2685 15.73194464 1308

Live tracking and technical data element details for STARLINK-3793 (NORAD 52380). STARLINK-3793 can be tracked NOW for your location showing map with azimuth and elevation plus other details from your city location.

Track the satellite on the map from your city or location and see movement details for azimuth, elevation, latitude, longitude, range, height, and movement on the map or in text.







IsCatalogInMostPopularTable: catalog: 52380, numindb: 5
Update: records affected: 1



GetName: 52380 STARLINK-3793

Hit Count: updated at: Sat, 25 Jun 2022 05:42:54 GMT